Location: Cogollal
(10.0582°N, 67.8466°W)
Time: 02:58:46
(UTC+00:00)

Cosmos 1766 - Visible Passes

Search period start: 19 July 2024 00:00
Search period end: 29 July 2024 00:00
Orbit: 483 x 501 km, 82.5° (Epoch: 18 July)

Date Brightness Start Highest point End Pass type
(mag) Time Alt. Az. Time Alt. Az. Time Alt. Az.
19 Jul 6.3 07:49:56 11° E 07:49:56 11° E 07:50:47 10° ENE visible
19 Jul 4.6 09:24:29 19° W 09:24:42 19° W 09:27:24 10° NW visible
20 Jul 4.1 09:03:00 29° WNW 09:03:00 29° WNW 09:05:40 10° NNW visible
21 Jul 4.4 08:41:26 31° NNW 08:41:26 31° NNW 08:43:33 10° N visible
22 Jul 5.3 08:19:48 22° N 08:19:48 22° N 08:21:10 10° N visible
23 Jul 6.1 07:58:04 13° NNE 07:58:04 13° NNE 07:58:32 10° NNE visible
